Back to catalog

ONEWEB-0696

AliveCommunicationsPO
NORAD 56723·PAYLOAD·🇬🇧 United Kingdom

Launched May 20, 2023 from Vandenberg Space Force Base

Loading…

Next Passes (next 24 hours)

TLE

FreshSource: CelesTrak SupGP

Epoch: Sep 14, 2026, 20:27 UTC

1 56723C 23068P   26257.85227269  .00002112  00000+0  56156-2 0  2572
2 56723  87.8984 241.3411 0002360  76.3458 321.7287 13.15549317    19

Track ONEWEB-0696 in real time with AllMySat

Download on the App Store